User: anonymous   Login
Location: Caltech
(34.1382°N, 118.1253°W)
Time: 07:34:49
(UTC-07:00)
Language:

GPS 2-04 Rocket1 - Orbit

View from above orbital plane
View from above orbital plane
View from above satellite
View from above satellite

Ground track
Ground track

The orbit data is extracted from the following two-line orbital elements,

1 20303U 89085B   18114.76165602  .00001668  00000-0  58638-4 0  9991
2 20303  35.6300 251.3879 0103110  49.0230 311.9363 15.24891167548115
Epoch (UTC): 24 April 2018 18:16:47
Eccentricity: 0.0103110
inclination: 35.6300°
perigee height: 420 km
apogee height: 562 km
right ascension of ascending node: 251.3879°
argument of perigee: 49.0230°
revolutions per day: 15.24891167
mean anomaly at epoch: 311.9363°
orbit number at epoch: 54811

The dashed part of the orbit path shows where the satellite is in the earth's shadow,  

DLR